Regional Weather Roundup
Issued by NWS

Home | Current Version | Previous Version | Text Only | Print | Product List | Glossary Off
Versions: 1 2 3 4 5 6 7 8 9 10 11 12 13 14 15 16 17 18 19 20 21 22 23 24 25 26 27 28 29 30 31 32 33 34 35 36 37 38 39 40 41 42 43 44 45 46 47 48 49 50

000
ASUS43 KDTX 291301
RWRMI
MICHIGAN HOURLY REGIONAL WEATHER ROUNDUP
NATIONAL WEATHER SERVICE DETROIT/PONTIAC MI
900 AM EDT SAT APR 29 2017

NOTE: "FAIR" INDICATES FEW OR NO CLOUDS BELOW 12,000 FEET WITH NO
SIGNIFICANT WEATHER AND/OR OBSTRUCTION TO VISIBILITY.

MIZ047>049-052>055-059>063-066>070-074>076-081>083-291400-
SOUTHEAST LOWER MICHIGAN

CITY           SKY/WX    TMP DP  RH WIND       PRES   REMARKS
ADRIAN         CLOUDY    49  44  83 NE18G24   30.09S
ALMA           CLOUDY    44  35  70 N10G18    30.19S
ANN ARBOR      CLOUDY    47  39  74 N14G21    30.12S
BAD AXE        CLOUDY    41  33  73 N7        30.19S
CARO           CLOUDY    42  35  75 NE6       30.19R
DETROIT CITY   CLOUDY    44  33  65 N15       30.16R
DETROIT        CLOUDY    47  37  68 N15       30.14R
FLINT          CLOUDY    45  35  68 NE12      30.17R
GROSSE ILE     CLOUDY    46  36  69 NE13      30.12R
HILLSDALE      CLOUDY    46  37  71 N12G21    30.09F
HOWELL         CLOUDY    45  35  67 NE6       30.16R

CITY           SKY/WX    TMP DP  RH WIND       PRES   REMARKS
JACKSON        CLOUDY    46  37  71 NE12      30.13S
LAMBERTVILLE   CLOUDY    48  45  90 NE8       30.10R
LANSING        CLOUDY    47  37  68 N8        30.16R
LAPEER         CLOUDY    44  33  66 NE8G16    30.17S
MASON          CLOUDY    45  40  82 NE9       30.15S
MONROE         CLOUDY    46  38  73 N10G25    30.11R
MT. CLEMENS    CLOUDY    44  34  69 N14       30.16R
PONTIAC        CLOUDY    45  35  68 NE8       30.15R
PORT HOPE        N/A     41  34  76 N15G22    30.19R
PORT HURON     CLOUDY    41  28  60 N13G18    30.17R
TRI CITIES     CLOUDY    45  37  73 NE12      30.20R
MIDLAND        CLOUDY    44  30  57 NE8       30.19F
TROY           CLOUDY    45  32  59 N7        30.17R
SAGINAW HB     CLOUDY    45  34  65 NE8       30.19S
$$
MIZ043>046-050>051-056>058-064>065-071>073-077>080-291400-
SOUTHWEST LOWER MICHIGAN

CITY           SKY/WX    TMP DP  RH WIND       PRES   REMARKS
BATTLE CREEK   CLOUDY    47  41  80 NE12      30.13F
BENTON HARBOR  CLOUDY    49  40  71 VRB5      30.13S
BIG RAPIDS     CLOUDY    40  32  70 NE7       30.19S
COLDWATER      CLOUDY    48  41  79 N17G23    30.10F
FREMONT        FAIR      44  29  57 NE13      30.18F
HOLLAND        CLOUDY    47  37  68 NE9       30.16F
GRAND RAPIDS   CLOUDY    45  38  76 NE9       30.15F
IONIA          CLOUDY    45  35  67 NE10      30.16S
KALAMAZOO      CLOUDY    48  39  71 NE9G17    30.12F
LUDINGTON      CLOUDY    39  29  66 NE13      30.22R WCI  31
MARSHALL       CLOUDY    46  41  82 N5        30.12F
MOUNT PLEASANT CLOUDY    43  32  65 N7        30.19S
MUSKEGON       CLOUDY    47  35  63 NE14      30.17F
SOUTH HAVEN    CLOUDY    47  41  79 NE10      30.14S
$$
MIZ016>042-291400-
NORTHERN LOWER MICHIGAN

CITY           SKY/WX    TMP DP  RH WIND       PRES   REMARKS
ALPENA         SUNNY     40  26  57 N15G26    30.20F WCI  32
BEAVER ISLAND  CLOUDY    37  28  69 N9G18     30.27R WCI  31
BELLAIRE       SUNNY     39  26  58 N10G22    30.25R WCI  32
CADILLAC       CLOUDY    36  27  69 N9        30.20R WCI  29
CHARLEVOIX     PTSUNNY   37  29  72 NW9       30.28R WCI  31
FRANKFORT      SUNNY     40  26  56 N7        30.26R
GAYLORD        CLOUDY    37  22  54 NW8       30.19S WCI  31
GRAYLING       CLOUDY    38  25  61 N10       30.21R WCI  30
HARBOR SPRINGS CLOUDY    39  28  64 N3        30.25R
HOUGHTON LAKE  CLOUDY    39  27  62 N10       30.20R WCI  32
MANISTEE       CLOUDY    39  28  64 NE12G20   30.24R WCI  32
OSCODA         CLOUDY    41  31  67 NW8       30.19R
PELLSTON         N/A    N/A N/A N/A MISG      30.26R
ROGERS CITY    PTSUNNY   38  27  63 NW12G21   30.22S WCI  31
TRAVERSE CITY  PTSUNNY   40  26  57 N10       30.23R WCI  33
$$
MIZ007>008-015-291400-
EASTERN UPPER MICHIGAN

CITY           SKY/WX    TMP DP  RH WIND       PRES   REMARKS
KINROSS        CLOUDY    35  24  64 NW13      30.23  WCI  26
MACKINAC ISLAN CLOUDY    38  28  68 NW10G18   30.24R WCI  30
NEWBERRY       CLOUDY    34  27  74 NW5       30.25R WCI  30
S. S. MARIE    CLOUDY    38  26  62 NW13      30.20F WCI  30
MUNISING         N/A     37  26  64 N21       30.28R WCI  26
$$
MIZ004>006-011>014-085-291400-
CENTRAL UPPER MICHIGAN

CITY           SKY/WX    TMP DP  RH WIND       PRES   REMARKS
MANISTIQUE     CLOUDY    35  30  82 NW6       30.27R WCI  30
ESCANABA       CLOUDY    36  27  69 VRB6      30.31R WCI  31
MENOMINEE      SUNNY     38  26  62 NE10      30.30R WCI  31
SAWYER-GWINN   MOSUNNY   34  25  69 N14       30.29R WCI  24
$$
MIZ001>003-009>011-084-291400-
WESTERN UPPER MICHIGAN

CITY           SKY/WX    TMP DP  RH WIND       PRES   REMARKS
IRON MOUNTAIN  SUNNY     35  25  66 NW8       30.29R WCI  29
HOUGHTON       SUNNY     37  21  52 N5        30.30R WCI  33
COPPER HARBOR    N/A     38  28  67 N9        30.27R WCI  31
IRONWOOD       SUNNY     35  30  82 SE6       30.35R WCI  30
$$

ABBREVIATIONS USED IN REMARKS
   TC - TEMPERATURE IN CELSIUS
  WCI - WIND CHILL INDEX
   HX - HEAT INDEX
  VSB - VISIBILITY





USA.gov is the U.S. government's official web portal to all federal, state and local government web resources and services.